This demonstration page uses our WeatherBlox Daily Observations layout. Learn more.

Left ArrowRight Arrow

38.83388, -104.82136

Hourly Observations for March 1, 2021

Temp ( °F °C ) Dew Point ( °F °C ) Humidity (%) Winds ( mph kmh ) Pressure ( in mb ) Visibility ( mi km ) Precip ( " mm )
12:58 am 00:58 Clear 22 -5.3 -6 -21.1 28 28 NNW 6 9 30.00 1016 10 16 0.00 0.00
1:58 am 01:58 Clear 28 -2.5 -11 -23.7 18 18 NNW 10 17 29.98 1015 10 16 0.00 0.00
2:58 am 02:58 Clear 27 -2.7 -10 -23.3 19 19 NNW 5 7 29.99 1016 10 16 0.00 0.00
3:58 am 03:58 Clear 25 -3.7 -6 -21.3 24 24 Calm 30.01 1016 10 16 0.00 0.00
4:58 am 04:58 Clear 26 -3.6 -6 -21.1 25 25 Calm 30.04 1017 10 16 0.00 0.00
5:58 am 05:58 Clear 25 -3.9 -8 -22.1 23 23 SSW 5 7 30.07 1018 10 16 0.00 0.00
6:58 am 06:58 Sunny 28 -2.2 -10 -23.5 18 18 S 6 9 30.07 1018 10 16 0.00 0.00
7:58 am 07:58 Sunny 31 -0.5 -6 -20.9 20 20 SE 8 13 30.09 1019 10 16 0.00 0.00
8:58 am 08:58 Sunny 33 0.7 -5 -20.7 19 19 SSE 17 28 30.09 1019 10 16 0.00 0.00
9:58 am 09:58 Sunny 33 0.8 1 -17.5 24 24 SE 16 26 30.10 1019 10 16 0.00 0.00
11:58 am 11:58 Sunny 37 2.5 1 -17.5 21 21 SE 20 31 30.06 1018 10 16 0.00 0.00
12:58 pm 12:58 Sunny 38 3.2 1 -17.2 21 21 SE 16 26 30.04 1017 10 16 0.00 0.00
1:58 pm 13:58 Sunny 39 4.1 2 -16.9 20 20 SSE 20 31 29.98 1015 10 16 0.00 0.00
2:58 pm 14:58 Sunny 39 4 2 -16.8 20 20 S 16 26 29.97 1015 10 16 0.00 0.00
3:58 pm 15:58 Sunny 37 2.9 4 -15.8 24 24 SSE 12 19 29.98 1015 10 16 0.00 0.00
4:58 pm 16:58 Sunny 36 2.4 4 -15.7 25 25 S 13 20 30.00 1016 10 16 0.00 0.00
5:58 pm 17:58 Clear 35 1.7 4 -15.4 27 27 S 8 13 30.00 1016 10 16 0.00 0.00
6:58 pm 18:58 Clear 35 1.4 4 -15.4 28 28 S 8 13 30.00 1016 10 16 0.00 0.00
7:58 pm 19:58 Clear 34 1 4 -15.3 29 29 S 9 15 29.98 1015 10 16 0.00 0.00
8:58 pm 20:58 Clear 32 0.2 5 -14.9 31 31 S 3 6 29.98 1015 10 16 0.00 0.00
9:58 pm 21:58 Clear 30 -0.9 6 -14.3 36 36 Calm 29.97 1015 10 16 0.00 0.00
10:58 pm 22:58 Clear 29 -1.6 6 -14.5 37 37 Calm 29.93 1014 10 16 0.00 0.00
11:58 pm 23:58 Clear 30 -1.3 6 -14.7 36 36 Calm 29.89 1012 10 16 0.00 0.00

Powered by AerisWeather